STARLINK-34616, 66320

Orbit data source: Space-Track

STARLINK-34616, 66320 is a payload satellite owned by SpaceX/Seattle (US) in LEO that was launched on Thu, 06 Nov 2025 UTC via an FALCON 9 launch vehicle from the Air Force Eastern Test Range (AFETR). Payload-class satellites include a variety of spacecraft equipped with specific instruments for various scientific and technological missions. These include communications satellites like Starlink; space stations such as the ISS; scientific satellites like the Hubble; Earth observation satellites from companies like Planet Labs, Umbra, and HawkEye 360; GPS; miniature CubeSats for education and research; and military/defense satellites.

Loading next visibility...
Identifier
66320, 2025-253B
Orbit
LEO
Country
Flag of USUS
Related business
Manufacturer
SpaceX/Seattle
Mission
Operational Commercial Communications
Bus & Motor
STARLINK V2MO, Unknown motor
Mass
575 kg wet, ~530 kg dry
Launch date (UTC)
2025-11-06 (7 months ago)
Launch vehicle
FALCON 9
Launch site
Air Force Eastern Test Range (AFETR)
Object type
Payload
Rocket body
Debris
Shape & HBR
Box + 2 Pan, 17.7 m
Radar Cross Section
36.964 m², Large (>1 m²)

Expand to show TLE details & history
Last TLE update: 7 hours ago

TLE from 7 hours ago
0 STARLINK-34616
1 66320U 25253B   26170.91921668  .00008244  00000-0  30868-3 0  9998
2 66320  42.9999 354.7829 0001579 267.7190  92.3480 15.27587274 35960
Epoch: 2026-06-19T22:03Z
TLE epoch observation values (Epoch: 2026-06-19T22:03:40.321Z)
Latitude
-0.00006°
Longitude
115.72354°
Altitude
482.847 km
Speed
7.626 km/s
True Right ascension
23h 39m 07s
True Declination
0° 00' 00"
Sunlit
Object was in daylight at epoch
Visualization orbit readout
Latitude
Unknown
Longitude
Unknown
Altitude
Unknown
Speed
Unknown
Apparent Right ascension
Unknown
Apparent Declination
Unknown
Sunlit
N/A
Visualization observer readout
Local Sidereal Time
16:04:57
Azimuth
Unknown
Elevation
Unknown
Doppler factor
Unknown
Orbital elements
Apogee altitude
486.056 km
Perigee altitude
483.889 km
Semi-major axis
6,863.11 km
Eccentricity
0.00016
Inclination
42.9999°
RAAN
354.7829°
Arg. of periapsis
267.719°
True anomaly
92.36608°
Mean anomaly
92.348°
Eccentric anomaly
92.35704°
Mean motion
3.81735 °/min
Orbital period
94.31 mins
BSTAR
0.00030868
Loading maneuver chart data...
Computing Atmospheric mass density...
Loading historical data...
Loading historical data...
Loading historical data...
Loading historical data...
Loading historical data...
Loading historical data...
Loading historical data...

Documentation

Showing up to 5 results
|